Time,TemperatureF,DewpointF,PressureIn,WindDirection,WindDirectionDegrees,WindSpeedMPH,WindSpeedGustMPH,Humidity,HourlyPrecipIn,Conditions,Clouds,dailyrainin,SoftwareType,DateUTC
2013-02-05 00:00:00,27.5,16.5,29.91,West,271,1.0,3.0,63,0.00,CLR,,0.00,WeatherDisplay:10.37,2013-02-05 07:00:00,
2013-02-05 00:05:00,36.1,16.8,29.91,SW,214,0.0,5.0,45,0.00,CLR,,0.00,WeatherDisplay:10.37,2013-02-05 07:05:00,
2013-02-05 00:10:00,24.1,14.7,29.91,SW,223,0.0,1.0,67,0.00,CLR,,0.00,WeatherDisplay:10.37,2013-02-05 07:10:00,
2013-02-05 00:15:00,54.7,18.5,29.91,WSW,252,5.0,8.0,24,0.00,CLR,,0.00,WeatherDisplay:10.37,2013-02-05 07:15:00,
2013-02-05 00:20:00,28.8,17.0,29.91,SW,234,0.0,7.0,61,0.00,CLR,,0.00,WeatherDisplay:10.37,2013-02-05 07:20:00,
2013-02-05 00:25:00,45.1,25.6,29.91,WSW,242,5.0,7.0,46,0.00,CLR,,0.00,WeatherDisplay:10.37,2013-02-05 07:25:00,
2013-02-05 00:30:00,40.1,23.4,29.91,SSW,198,5.0,15.0,51,0.00,CLR,,0.00,WeatherDisplay:10.37,2013-02-05 07:30:00,
2013-02-05 00:35:00,35.6,24.6,29.91,SSW,201,3.0,5.0,64,0.00,CLR,,0.00,WeatherDisplay:10.37,2013-02-05 07:35:00,
2013-02-05 00:40:00,42.1,32.3,29.91,SW,231,6.0,12.0,68,0.00,CLR,,0.00,WeatherDisplay:10.37,2013-02-05 07:40:00,
2013-02-05 00:45:00,36.3,32.8,29.91,SW,224,5.0,5.0,87,0.00,CLR,,0.00,WeatherDisplay:10.37,2013-02-05 07:45:00,
2013-02-05 00:50:00,39.6,33.6,29.91,SSW,206,3.0,16.0,79,0.00,CLR,,0.00,WeatherDisplay:10.37,2013-02-05 07:50:00,
2013-02-05 00:55:00,38.1,32.8,29.91,WSW,249,5.0,21.0,81,0.00,CLR,,0.00,WeatherDisplay:10.37,2013-02-05 07:55:00,
2013-02-05 01:00:00,35.6,32.1,29.91,WNW,283,2.0,12.0,87,0.00,CLR,,0.00,WeatherDisplay:10.37,2013-02-05 08:00:00,
2013-02-05 01:05:00,33.1,29.3,29.91,WNW,291,0.0,7.0,86,0.00,CLR,,0.00,WeatherDisplay:10.37,2013-02-05 08:05:00,
2013-02-05 01:10:00,35.2,31.5,29.91,WNW,288,6.0,7.0,86,0.00,CLR,,0.00,WeatherDisplay:10.37,2013-02-05 08:10:00,
2013-02-05 01:15:00,37.9,35.3,29.91,West,269,13.0,16.0,90,0.00,CLR,,0.00,WeatherDisplay:10.37,2013-02-05 08:15:00,
2013-02-05 01:20:00,37.8,34.5,29.91,West,269,5.0,19.0,88,0.00,CLR,,0.00,WeatherDisplay:10.37,2013-02-05 08:20:00,
2013-02-05 01:25:00,35.6,32.1,29.91,West,278,0.0,5.0,87,0.00,CLR,,0.00,WeatherDisplay:10.37,2013-02-05 08:25:00,
2013-02-05 01:30:00,28.8,24.2,29.91,WNW,300,2.0,5.0,83,0.00,CLR,,0.00,WeatherDisplay:10.37,2013-02-05 08:30:00,
2013-02-05 01:35:00,31.5,25.4,29.91,NNW,348,0.0,1.0,78,0.00,CLR,,0.00,WeatherDisplay:10.37,2013-02-05 08:35:00,
2013-02-05 01:40:00,46.6,29.9,29.91,NW,324,3.0,7.0,52,0.00,CLR,,0.00,WeatherDisplay:10.37,2013-02-05 08:40:00,
2013-02-05 01:45:00,37.9,22.3,29.91,NW,308,1.0,3.0,53,0.00,CLR,,0.00,WeatherDisplay:10.37,2013-02-05 08:45:00,
2013-02-05 01:50:00,51.6,19.5,29.91,WSW,257,3.0,5.0,28,0.00,CLR,,0.00,WeatherDisplay:10.37,2013-02-05 08:50:00,
2013-02-05 01:55:00,33.6,23.5,29.91,West,279,1.0,5.0,66,0.00,CLR,,0.00,WeatherDisplay:10.37,2013-02-05 08:55:00,
2013-02-05 02:00:00,34.0,29.1,29.91,NNW,347,0.0,1.0,82,0.00,CLR,,0.00,WeatherDisplay:10.37,2013-02-05 09:00:00,
2013-02-05 02:05:00,34.7,31.8,29.91,ENE,64,1.0,4.0,89,0.00,CLR,,0.00,WeatherDisplay:10.37,2013-02-05 09:05:00,
2013-02-05 02:10:00,25.5,23.5,29.91,ENE,65,0.0,1.0,92,0.00,CLR,,0.00,WeatherDisplay:10.37,2013-02-05 09:10:00,
2013-02-05 02:15:00,46.8,31.0,29.91,ENE,59,2.0,3.0,54,0.00,CLR,,0.00,WeatherDisplay:10.37,2013-02-05 09:15:00,
2013-02-05 02:20:00,22.5,15.1,29.91,ENE,68,1.0,3.0,73,0.00,CLR,,0.00,WeatherDisplay:10.37,2013-02-05 09:20:00,
2013-02-05 02:25:00,38.7,12.0,29.91,East,80,1.0,3.0,33,0.00,CLR,,0.00,WeatherDisplay:10.37,2013-02-05 09:25:00,
2013-02-05 02:30:00,30.2,15.1,29.91,NW,311,2.0,5.0,53,0.00,CLR,,0.00,WeatherDisplay:10.37,2013-02-05 09:30:00,
2013-02-05 02:35:00,21.4,13.1,29.91,NW,312,1.0,3.0,70,0.00,CLR,,0.00,WeatherDisplay:10.37,2013-02-05 09:35:00,
2013-02-05 02:40:00,19.0,8.5,29.91,East,93,5.0,12.0,63,0.00,CLR,,0.00,WeatherDisplay:10.37,2013-02-05 09:40:00,
2013-02-05 02:45:00,13.6,3.4,29.91,East,90,0.0,5.0,63,0.00,CLR,,0.00,WeatherDisplay:10.37,2013-02-05 09:45:00,
2013-02-05 02:50:00,41.7,20.3,29.91,NNE,30,0.0,0.0,42,0.00,CLR,,0.00,WeatherDisplay:10.37,2013-02-05 09:50:00,
2013-02-05 02:55:00,28.4,15.5,29.91,North,360,0.0,0.0,58,0.00,CLR,,0.00,WeatherDisplay:10.37,2013-02-05 09:55:00,
2013-02-05 03:00:00,18.0,12.5,29.91,North,360,0.0,0.0,79,0.00,CLR,,0.00,WeatherDisplay:10.37,2013-02-05 10:00:00,
2013-02-05 03:05:00,29.8,16.0,29.91,North,360,0.0,0.0,56,0.00,CLR,,0.00,WeatherDisplay:10.37,2013-02-05 10:05:00,
2013-02-05 03:10:00,27.0,15.3,29.91,North,360,0.0,0.0,61,0.00,CLR,,0.00,WeatherDisplay:10.37,2013-02-05 10:10:00,
2013-02-05 03:15:00,40.3,14.8,29.91,North,360,0.0,0.0,35,0.00,CLR,,0.00,WeatherDisplay:10.37,2013-02-05 10:15:00,
2013-02-05 03:20:00,29.7,13.3,29.91,North,360,0.0,0.0,50,0.00,CLR,,0.00,WeatherDisplay:10.37,2013-02-05 10:20:00,
2013-02-05 03:25:00,33.3,13.7,29.91,North,360,0.0,0.0,44,0.00,CLR,,0.00,WeatherDisplay:10.37,2013-02-05 10:25:00,
2013-02-05 03:30:00,27.1,24.1,29.91,North,360,0.0,0.0,88,0.00,CLR,,0.00,WeatherDisplay:10.37,2013-02-05 10:30:00,
2013-02-05 03:35:00,27.5,25.5,29.91,North,360,0.0,0.0,92,0.00,CLR,,0.00,WeatherDisplay:10.37,2013-02-05 10:35:00,
2013-02-05 03:40:00,27.3,25.0,29.91,North,360,0.0,0.0,91,0.00,CLR,,0.00,WeatherDisplay:10.37,2013-02-05 10:40:00,
2013-02-05 03:45:00,21.0,18.8,29.91,North,360,0.0,0.0,91,0.00,CLR,,0.00,WeatherDisplay:10.37,2013-02-05 10:45:00,
2013-02-05 03:50:00,23.0,20.2,29.91,North,360,0.0,0.0,89,0.00,CLR,,0.00,WeatherDisplay:10.37,2013-02-05 10:50:00,
2013-02-05 03:55:00,18.7,14.6,29.91,North,360,0.0,0.0,84,0.00,CLR,,0.00,WeatherDisplay:10.37,2013-02-05 10:55:00,
2013-02-05 04:00:00,15.3,12.6,29.91,North,360,0.0,0.0,89,0.00,CLR,,0.00,WeatherDisplay:10.37,2013-02-05 11:00:00,
2013-02-05 04:05:00,20.7,16.9,29.91,North,360,0.0,0.0,85,0.00,CLR,,0.00,WeatherDisplay:10.37,2013-02-05 11:05:00,
2013-02-05 04:10:00,20.3,18.6,29.91,North,360,0.0,0.0,93,0.00,CLR,,0.00,WeatherDisplay:10.37,2013-02-05 11:10:00,
2013-02-05 04:15:00,29.5,25.5,29.91,North,360,0.0,0.0,85,0.00,CLR,,0.00,WeatherDisplay:10.37,2013-02-05 11:15:00,
2013-02-05 04:20:00,26.4,24.1,29.91,North,360,0.0,0.0,91,0.00,CLR,,0.00,WeatherDisplay:10.37,2013-02-05 11:20:00,
2013-02-05 04:25:00,27.7,26.2,29.91,North,360,0.0,0.0,94,0.00,CLR,,0.00,WeatherDisplay:10.37,2013-02-05 11:25:00,
2013-02-05 04:30:00,24.6,22.6,29.91,North,360,0.0,0.0,92,0.00,CLR,,0.00,WeatherDisplay:10.37,2013-02-05 11:30:00,
2013-02-05 04:35:00,6.3,1.7,29.91,North,360,0.0,0.0,81,0.00,CLR,,0.00,WeatherDisplay:10.37,2013-02-05 11:35:00,
2013-02-05 04:40:00,22.5,-1.1,29.91,North,360,0.0,0.0,35,0.00,CLR,,0.00,WeatherDisplay:10.37,2013-02-05 11:40:00,
2013-02-05 04:45:00,0.9,-5.5,29.91,North,360,0.0,0.0,74,0.00,CLR,,0.00,WeatherDisplay:10.37,2013-02-05 11:45:00,
2013-02-05 04:50:00,32.9,5.5,29.91,North,360,0.0,0.0,31,0.00,CLR,,0.00,WeatherDisplay:10.37,2013-02-05 11:50:00,
2013-02-05 04:55:00,14.2,0.9,29.91,North,360,0.0,0.0,55,0.00,CLR,,0.00,WeatherDisplay:10.37,2013-02-05 11:55:00,
2013-02-05 05:00:00,14.0,1.9,29.91,North,360,0.0,0.0,58,0.00,CLR,,0.00,WeatherDisplay:10.37,2013-02-05 12:00:00,
2013-02-05 05:05:00,23.5,11.3,29.91,North,360,0.0,0.0,59,0.00,CLR,,0.00,WeatherDisplay:10.37,2013-02-05 12:05:00,
2013-02-05 05:10:00,15.1,3.3,29.91,North,360,0.0,0.0,59,0.00,CLR,,0.00,WeatherDisplay:10.37,2013-02-05 12:10:00,
2013-02-05 05:15:00,38.7,5.8,29.91,North,360,0.0,0.0,25,0.00,CLR,,0.00,WeatherDisplay:10.37,2013-02-05 12:15:00,
2013-02-05 05:20:00,28.9,12.6,29.91,North,360,0.0,0.0,50,0.00,CLR,,0.00,WeatherDisplay:10.37,2013-02-05 12:20:00,
2013-02-05 05:25:00,28.8,22.1,29.91,North,360,0.0,0.0,76,0.00,CLR,,0.00,WeatherDisplay:10.37,2013-02-05 12:25:00,
2013-02-05 05:30:00,25.5,22.7,29.91,North,360,0.0,0.0,89,0.00,CLR,,0.00,WeatherDisplay:10.37,2013-02-05 12:30:00,
2013-02-05 05:35:00,24.8,22.8,29.91,North,360,0.0,0.0,92,0.00,CLR,,0.00,WeatherDisplay:10.37,2013-02-05 12:35:00,
2013-02-05 05:40:00,25.7,21.5,29.91,North,360,0.0,0.0,84,0.00,CLR,,0.00,WeatherDisplay:10.37,2013-02-05 12:40:00,
2013-02-05 05:45:00,9.7,4.2,29.91,North,360,0.0,0.0,78,0.00,CLR,,0.00,WeatherDisplay:10.37,2013-02-05 12:45:00,
2013-02-05 05:50:00,34.9,10.6,29.91,North,360,0.0,0.0,36,0.00,CLR,,0.00,WeatherDisplay:10.37,2013-02-05 12:50:00,
2013-02-05 05:55:00,15.6,0.3,29.91,North,360,0.0,0.0,50,0.00,CLR,,0.00,WeatherDisplay:10.37,2013-02-05 12:55:00,
2013-02-05 06:00:00,15.8,12.4,29.91,North,360,0.0,0.0,86,0.00,CLR,,0.00,WeatherDisplay:10.37,2013-02-05 13:00:00,
2013-02-05 06:05:00,15.8,12.9,29.91,North,360,0.0,0.0,88,0.00,CLR,,0.00,WeatherDisplay:10.37,2013-02-05 13:05:00,
2013-02-05 06:10:00,16.0,13.3,29.91,North,360,0.0,0.0,89,0.00,CLR,,0.00,WeatherDisplay:10.37,2013-02-05 13:10:00,
2013-02-05 06:15:00,23.4,14.0,29.91,North,360,0.0,0.0,67,0.00,CLR,,0.00,WeatherDisplay:10.37,2013-02-05 13:15:00,
2013-02-05 06:20:00,12.0,7.3,29.91,North,360,0.0,0.0,81,0.00,CLR,,0.00,WeatherDisplay:10.37,2013-02-05 13:20:00,
2013-02-05 06:25:00,16.3,8.6,29.91,North,360,0.0,0.0,71,0.00,CLR,,0.00,WeatherDisplay:10.37,2013-02-05 13:25:00,
2013-02-05 06:30:00,5.4,2.3,29.91,North,360,0.0,0.0,87,0.00,CLR,,0.00,WeatherDisplay:10.37,2013-02-05 13:30:00,
2013-02-05 06:35:00,12.6,7.3,29.91,North,360,0.0,0.0,79,0.00,CLR,,0.00,WeatherDisplay:10.37,2013-02-05 13:35:00,
2013-02-05 06:40:00,21.9,7.4,29.91,North,360,0.0,0.0,53,0.00,CLR,,0.00,WeatherDisplay:10.37,2013-02-05 13:40:00,
2013-02-05 06:45:00,6.8,3.0,29.91,North,360,0.0,0.0,84,0.00,CLR,,0.00,WeatherDisplay:10.37,2013-02-05 13:45:00,
2013-02-05 06:50:00,25.0,13.0,29.91,North,360,0.0,0.0,60,0.00,CLR,,0.00,WeatherDisplay:10.37,2013-02-05 13:50:00,
2013-02-05 06:55:00,12.9,9.5,29.91,North,360,0.0,0.0,86,0.00,CLR,,0.00,WeatherDisplay:10.37,2013-02-05 13:55:00,
2013-02-05 07:00:00,3.9,0.2,29.91,North,360,0.0,0.0,84,0.00,CLR,,0.00,WeatherDisplay:10.37,2013-02-05 14:00:00,
2013-02-05 07:05:00,10.2,3.3,29.91,North,360,0.0,0.0,73,0.00,CLR,,0.00,WeatherDisplay:10.37,2013-02-05 14:05:00,
2013-02-05 07:10:00,-1.1,-6.1,29.91,North,360,0.0,0.0,79,0.00,CLR,,0.00,WeatherDisplay:10.37,2013-02-05 14:10:00,
2013-02-05 07:15:00,32.5,8.5,29.91,North,360,0.0,0.0,36,0.00,CLR,,0.00,WeatherDisplay:10.37,2013-02-05 14:15:00,
2013-02-05 07:20:00,6.8,-0.3,29.91,North,360,0.0,0.0,72,0.00,CLR,,0.00,WeatherDisplay:10.37,2013-02-05 14:20:00,
2013-02-05 07:25:00,20.3,9.0,29.91,North,360,0.0,0.0,61,0.00,CLR,,0.00,WeatherDisplay:10.37,2013-02-05 14:25:00,
2013-02-05 07:30:00,12.2,2.0,29.91,North,360,0.0,0.0,63,0.00,CLR,,0.00,WeatherDisplay:10.37,2013-02-05 14:30:00,
2013-02-05 07:35:00,7.9,-3.5,29.91,North,360,0.0,0.0,59,0.00,CLR,,0.00,WeatherDisplay:10.37,2013-02-05 14:35:00,
2013-02-05 11:26:00,7.9,-3.5,29.91,North,360,0.0,0.0,59,0.00,CLR,,0.00,WeatherDisplay:10.37,2013-02-05 18:26:00,
2013-02-05 11:27:00,7.9,-3.5,29.91,North,360,0.0,0.0,59,0.00,CLR,,0.00,WeatherDisplay:10.37,2013-02-05 18:27:00,
2013-02-05 11:28:00,7.9,-3.5,29.91,North,360,0.0,0.0,59,0.00,CLR,,0.00,WeatherDisplay:10.37,2013-02-05 18:28:00,
2013-02-05 11:32:00,7.9,-3.5,29.91,North,360,0.0,0.0,59,0.00,CLR,,0.00,WeatherDisplay:10.37,2013-02-05 18:32:00,
2013-02-05 11:37:00,7.9,-3.5,29.91,North,360,0.0,0.0,59,0.00,CLR,,0.00,WeatherDisplay:10.37,2013-02-05 18:37:00,
2013-02-05 11:43:00,7.9,-3.5,29.91,North,360,0.0,0.0,59,0.00,CLR,,0.00,WeatherDisplay:10.37,2013-02-05 18:43:00,
2013-02-05 12:02:00,7.9,-3.5,29.91,North,360,0.0,0.0,59,0.00,CLR,,0.00,WeatherDisplay:10.37,2013-02-05 19:02:00,